Location: Northcutt
(34.7304°N, 84.4305°W)
Time: 18:37:56
(UTC+00:00)

SR - Pass Details

Date: 08 October 2022
Orbit: 577 x 874 km, 66.7° (Epoch: 05 December)

Event Time Altitude Azimuth Distance (km) Brightness Sun altitude
Rises 09:27:39 0° 344° (NNW) 3,284 ? -27.4°
Reaches altitude 10° 09:30:32 10° 356° (N) 2,299 ? -26.8°
Maximum altitude 09:34:55 27° 53° (NE) 1,382 ? -26.0°
Drops below altitude 10° 09:39:00 10° 111° (ESE) 2,121 ? -25.1°
Sets 09:41:31 0° 124° (SE) 2,981 ? -24.6°
